User: anonymous   Login
Location: French Creek State Gamelands
(40.1750°N, 75.7969°W)
Time: 11:19:42
(UTC-04:00)
Language:

ISS - Orbit

View from above orbital plane
View from above orbital plane
View from above satellite
View from above satellite

Ground track
Ground track

The orbit data is extracted from the following two-line orbital elements,

1 25544U 98067A   15243.52770509  .00010557  00000-0  15997-3 0  9992
2 25544 051.6434 067.8528 0001290 142.3704 316.2490 15.55234908959767
Epoch (UTC): 31 August 2015 12:39:53
Eccentricity: 0.0001290
inclination: 51.6434°
perigee height: 400 km
apogee height: 402 km
right ascension of ascending node: 67.8528°
argument of perigee: 142.3704°
revolutions per day: 15.55234908
mean anomaly at epoch: 316.2490°
orbit number at epoch: 95976

The dashed part of the orbit path shows where the satellite is in the earth's shadow,  

DLR